World > North America > United States > Arizona

Phoenix, Arizona Regional Weather

Lat: 33.54N, Lon: 112.07W
Wx Zone: AZZ543
Feedback

Phoenix, AZ Regional Weather

Expires:201910211500;;050923
ASUS45 KPSR 211410
RWRAZ 

ARIZONA HOURLY REGIONAL WEATHER ROUNDUP
NATIONAL WEATHER SERVICE PHOENIX AZ
700 AM MST MON OCT 21 2019

NOTE: FAIR INDICATES FEW OR NO CLOUDS BELOW 12,000 FEET WITH NO
SIGNIFICANT WEATHER AND/OR OBSTRUCTIONS TO VISIBILITY.


AZZ540-542>544-546-548-211500-
GREATER PHOENIX AREA
  
CITY           SKY/WX    TMP DP  RH WIND       PRES   REMARKS
PHOENIX        PTCLDY    62  18  18 CALM      29.98R                  
BUCKEYE        CLEAR     52  18  25 CALM      30.00R                  
LUKE AFB       CLEAR     55  21  26 N9        29.99R                  
DEER VALLEY    CLEAR     56  16  20 E7        30.00R                  
SCOTTSDALE     CLEAR     55  31  39 CALM      30.01R                  
MESA-FALCON    CLEAR     62  16  16 NE8       30.00R                  
MESA-GATEWAY   CLEAR     54  23  30 SE5       30.02R                  
CHANDLER       CLEAR     54  25  32 NE13      30.00                   
$$


SKY/WX - Weather  TMP - Temperature  DP - Dew Point  RH - Relative Humidity
WIND - Wind Direction/Speed PRES - Barometric Pressure VSB - Visibility
WCI - Wind Chill Index E13G22 Wind - East Wind 13 mph/Gusts of 22 mph